Location: Treviso
(45.6669°N, 12.2430°E)
Time: 19:54:28

ISS - Pass Details

Date: 14 March 2018
Orbit: 403 x 406 km, 51.6° (Epoch: 23 March)

Event Time Altitude Azimuth Distance (km) Brightness Sun altitude
Exits shadow 05:19:32 14° 306° (NW) 1,273 -1.7 -12.4°
Maximum altitude 05:22:16 52° 22° (NNE) 510 -3.2 -11.9°
Drops below altitude 10° 05:25:29 10° 100° (E) 1,461 0.3 -11.4°
Sets 05:27:36 0° 106° (ESE) 2,318 1.4 -11.0°
